Location: Bear Trap Landing
(45.2437°N, 67.7928°W)
Time: 18:43:27
(UTC+00:00)

ISS - Pass Details

Date: 12 March 2021
Orbit: 418 x 421 km, 51.6° (Epoch: 21 April)

Event Time Altitude Azimuth Distance (km) Brightness Sun altitude
Exits shadow 09:26:22 29° 223° (SW) 798 -2.8 -15.3°
Maximum altitude 09:26:26 29° 221° (SW) 798 -2.8 -15.3°
Drops below altitude 10° 09:29:22 10° 159° (SSE) 1,490 -0.8 -14.8°
Sets 09:31:37 0° 148° (SSE) 2,350 0.4 -14.4°
